Погода Грозный

Погода Грозный : погода сейчас, прогноз погоды и архив. Всё, что Вы хотите узнать о погоде Грозный!

Поиск расширенной информации на нашем сайте:

Другие новости

Новости СМИ2

Главная страница сайта

Новости сайта

02.10.2013

Напоминаем, что на нашем новом сайте вы можете получить высокодетализированные прогнозы погоды по пунктам России, СНГ и мира (включающие важные для авиации метеовеличины, такие как направление и скорость ветра, видимость, явления погоды, количество и форма облачности, нижняя и верхняя граница облачности), а также ознакомиться с разнообразными материалами по авиационной метеорологии и подборкой полезных ссылок на эту тему.

Сайт Метеоцентр.Азия посвящён разработке технологий оптимизации авиаметеорологического обслуживания, включая проектирование и перспективное создание нескольких автоматизированных авиаметеорологических систем:
- система выпуска высокодетальных прогностических карт явлений погоды для нижнего воздушного пространства по России и ближнему зарубежью;
- система верификации прогнозов TAF (выпускаемых синоптиками официальных АМСГ РФ и ближнего зарубежья) и AUTOTAF (выпускаемых сайтом Метеоцентр.Азия) - выявление ошибок, онлайн-сопоставление с фактической погодой METAR, автоматическое внесение коррективов в прогнозы при резком отклонении фактической погоды от прогноза, подсчёт оправдываемости прогнозов по элементам и в целом;
- система обработки, анализа и отображения авиаметеорологической информации для применения провайдерами метеорологической информации.

Рекомендуем: Наружные отопительные котлы - газовые котлы будерус.

Погода Грозный - сегодня

Время (UTC), дата Ветер
(°,м/с) 
Видим.   Явления Облачность Т
(°С)
Тd
(°С)
f(%) Тe
(°С)
Pmin
(гПа)
dP
(гПа)
Po
(мм)
O2
(г/м3)
Тmin Tmax R s Состояние
почвы
03 20.04.17 тихо ()   20000 м    10/10 1000 м 
[Sc]
+7.9 +3.7 75 +8  1022.7  1.3  743  291  +7.8        сухая 
06 20.04.17 020 (С) 20000 м    10/10 1000 м 
[Sc]
+9.8 +3.4 64 +11  1022.2  -0.1  743  289           
09 20.04.17 090 (В) 20000 м    ясно 
+13.5 +4.7 55 +15  1019.9  -2.1  742  284           
12 20.04.17 060 (СВ) 20000 м    ясно 
+16 +4.3 46 +17  1018.1  -1.4  741  281           
15 20.04.17 070 (В) 20000 м    3/0 верхняя 
[Ci fib]
+14.2 +4.3 51 +14  1017.8  -0.5  740  283    +16.5       
18 20.04.17 070 (В) 10 км    ясно 
+10.7 +4.2 64 +10  1018.3  0.2  741  286           
21 20.04.17 тихо ()   10 км    ясно 
+7.3 +4.5 82 +7  1017.6  -1.1  740  290           
00 21.04.17 090 (В) 10 км    ясно 
+4.4 +3.5 94 +5  1015.7  -2.2  738  292           
03 21.04.17 тихо ()   20000 м    ясно 
+3.6 +3.2 97 +4  1015  -0.4  738  293  +2.9        сухая 
06 21.04.17 250 (З) 20000 м    9/0 средняя 
[Ac As]
+11.4 +6.7 73 +13  1012.8  -1.5  737  284           
09 21.04.17 070 (В) 20000 м    9/9 1000 м 
[Sc]
+13.8 +7.1 64 +14  1010.4  -2.2  735  281           
12 21.04.17 040 (СВ) 20000 м    10/10 1000 м 
[Sc]
+16.8 +7.6 55 +17  1008.8  -1.2  734  277           
15 21.04.17 050 (СВ) 20000 м    ясно 
+15.5 +8.5 63 +17  1007.9  -1  733  278    +18.3       
18 21.04.17 080 (В) 10 км    ясно 
+9.3 +6.9 85 +10  1010.1  1.4  734  285           
21 21.04.17 тихо ()   10 км    8/0 средняя 
[Ac trans]
+8.5 +7.1 91 +9  1010.9  0.7  735  286           
00 22.04.17 280 (З) 4{11}  10 км    10/10 600 м 
[Frnb]
+7.5 +5.7 88 +6  1014.4  3.3  737  288           
03 22.04.17 360 (С) 4000 м  слаб. дождь  10/10 300 м 
[Ns]
+5 +4.5 97 +6  1016.6  1.9  739  292  +4.9      влажная 
06 22.04.17 110 (В) 10 км  в посл. час дождь  10/10 600 м 
[Frnb|Ns]
+6.3 +5.2 93 +7  1015.6  -0.8  738  290  +4.8         
09 22.04.17 070 (В) 20000 м    10/10 1000 м 
[Sc]
+8.1 +4.1 76 +8  1017.8  740  289           
12 22.04.17 100 (В) 20000 м    3/0 средняя 
[Ac lent]
+11.5 +4.4 62 +12  1015.3  -1.7  738  285           
15 22.04.17 тихо ()   20000 м    5/0 средняя, верхняя 
[Ac lent|Ci fib]
+12.5 +3.6 55 +13  1019.1  3.8  741  285    +14.4  0.8     
18 22.04.17 060 (СВ) 10 км    9/0 средняя 
[Ac cast]
+9.2 +2.6 63 +9  1020.5  742  289           
21 22.04.17 080 (В) 10 км    ясно 
+6.8 +1.6 69 +6  1020.2  -0.6  742  291           
00 23.04.17 070 (В) 10 км    9/0 средняя 
[Ac lent]
+6.5 +1.7 71 +6  1018.9  -1.3  741  291           
03 23.04.17 060 (СВ) 20000 м    8/8 1000 м 
[Sc]
+5.4 +3 84 +5  1015.7  -3.3  738  291  +4.6        сухая 
Время (UTC), дата Ветер
(°,м/с) 
Видим.   Явления Облачность Т
(°С)
Тd
(°С)
f(%) Тe
(°С)
Pmin
(гПа)
dP
(гПа)
Po
(мм)
O2
(г/м3)
Тmin Tmax R s Состояние
почвы

Для получения пояснительной информации подведите курсор к названию столбца.

ПОГОДА Грозный - архив

Всё, что Вы хотите узнать о погоде Грозный - удобно и подробно!

Выберите нужную дату (начиная с 1 января 2015* года) и нажмите кнопку "Найти".
Будут отображены архивные сводки погоды по пункту Грозный, начиная с указанной даты.


Отображать данные в формате CSV (для использования в таблицах Excel)


Внимание! Наш архив погоды предназначен исключительно для личного некоммерческого использования в познавательных целях. Если Вам необходимы официальные справки о состоянии погоды (для производственных, юридических, коммерческих и т.п. целей), обращайтесь в органы Росгидромета.

*Примечание: данная дата относится к архиву по метеостанциям СССР (Россия, СНГ, Балтия).
Архив по метеостанциям Зарубежной Европы и Азии (кроме Китая) хранится 10 дней, по другим регионам земного шара (Китай, Африка, Америка, Австралия, Океания) - 1 день.

Грозный - район местоположения метеостанции


Название, широта, долгота, высота метеостанции:
Грозный 43.3°ш. 45.7°д. 163 м над ур. моря [Российская Федерация]

Дополнительная информация

В oтличие oт бoльшинства пoгoдных сайтoв мы публикуем пoдрoбную метеoинфoрмацию в детальнoм прoфессиoнальнoм фoрмате.

Характеристики температуры и влажнoсти вoздуха измеряются на высoте 2 м в тени вдали oт зданий и деревьев.
Скoрoсть ветра измеряется на высoте 10 м (на урoвне рoста челoвека скoрoсть ветра ниже в 1.5-2 раза). Если метеoстанция нахoдится в гoрoде или в лесу, тo скoрoсть ветра занижена на 2-4 м/с пo сравнению с oткрытым местoм. Скoрoсть ветра над акватoриями крупных рек и oзёр, а также на вершинах хoлмoв на 2-5 м/с выше, чем в oбычных услoвиях.
Атмoсфернoе давление в разных тoчках местнoсти мoжет значительнo oтличаться oт давления на метеoстанции, в зависимoсти oт услoвий рельефа (при пoдъёме на 10 м давление пoнижается примернo на 1 мм рт.ст.).